Location: Maccacari
(45.1333°N, 11.1333°E)
Time: 11:05:10
(UTC+00:00)

Daily predictions for brighter satellites

Satellite Brightness Start Highest point End
(mag) Time Altitude Azimuth Time Altitude Azimuth Time Altitude Azimuth
CENTAUR R/B 4.3 17:36:41 10° NNW 17:43:03 27° NNE 17:50:04 10° E
CZ-2C R/B 4.1 17:40:32 10° NE 17:44:01 17° E 17:47:31 10° SE
ATLAS 5 CENTAUR R/B 2.1 17:41:44 10° NW 17:44:27 66° NE 17:52:01 10° SE
SL-16 R/B 3.8 17:39:33 10° NW 17:44:46 39° WSW 17:49:58 10° S
Cosmos 1707 4.2 17:43:33 10° NNE 17:46:16 18° ENE 17:48:59 10° ESE
Cosmos 1743 3.1 17:42:34 10° SSW 17:46:23 70° W 17:50:14 10° N
Iridium 4 Rocket 3.5 17:42:24 10° SSE 17:47:10 61° E 17:52:27 10° N
ATLAS CENTAUR R/B 3.9 17:50:10 10° W 17:52:44 17° NW 17:55:13 10° N
Cosmos 2263 Rocket 2.2 17:49:34 10° SSW 17:55:03 65° ESE 18:00:36 10° NNE
Meteor 2-9 Rocket 4.3 17:52:18 10° S 17:58:04 63° E 18:03:49 10° NNE
DELTA 2 R/B (1) 4.3 17:53:05 10° W 17:58:19 43° S 18:03:32 10° ESE
Cosmos 1844 Rocket 4.0 17:59:37 10° SE 18:02:53 16° E 18:06:09 10° ENE
CZ-2C R/B 3.1 17:57:59 10° SSE 18:03:10 77° ENE 18:08:41 10° N
Tsikada Rocket 4.4 17:57:19 10° NNW 18:03:26 69° W 18:09:32 10° S
SJ 16-02 2.4 17:59:31 10° SW 18:03:46 50° WNW 18:08:03 10° N
Cosmos 990 Rocket 4.0 17:58:53 10° SSW 18:04:01 88° WNW 18:09:12 10° NNE
Cosmos 2227 4.2 17:58:53 10° SSW 18:04:37 82° ESE 18:10:22 10° NNE
Cosmos 1464 Rocket 4.5 17:59:40 10° SSE 18:05:09 36° E 18:10:40 10° NNE
ISS -2.6 18:03:01 10° SSW 18:05:51 25° SE 18:08:15 12° E
Abrixas rocket 2.2 18:05:46 10° W 18:08:34 59° NNW 18:11:14 11° ENE
Okean 2 Rocket 4.0 18:05:01 10° SSE 18:08:51 28° E 18:12:42 10° NNE
SJ-11-01 4.3 18:04:50 10° SSE 18:09:32 72° ENE 18:14:14 10° N
Cosmos 1943 3.2 18:05:15 10° NNW 18:10:56 83° ENE 18:16:36 10° SSE
Okean-O 3.9 18:07:34 10° S 18:11:49 45° W 18:16:06 10° NNW
Lacrosse 5 rocket 3.2 18:09:27 10° W 18:13:12 29° NNW 18:17:06 10° NE
Ariane Rocket 3.6 18:10:27 10° SE 18:15:02 36° ENE 18:19:39 10° N
Cosmos 1437 2.6 18:15:51 10° NNW 18:18:51 80° W 18:21:50 10° S
NOSS 2-2 (C) 3.3 18:16:35 10° SSW 18:19:56 44° ESE 18:23:32 10° NE
Meteor 1-21 4.2 18:16:11 10° N 18:21:49 88° W 18:27:25 10° S
Cosmos 1300 Rocket 4.1 18:18:05 10° SSE 18:22:06 36° E 18:26:10 10° NNE
CSL-04 Debris 4.4 18:17:32 10° S 18:22:55 75° WSW 18:28:20 10° NNW
USA 116 4.0 18:19:52 10° N 18:23:14 64° WNW 18:26:59 10° SSW
YAOGAN 1 3.9 18:23:19 10° S 18:27:26 42° W 18:31:34 10° NNW
HJ-1C 3.8 18:26:37 10° S 18:29:52 62° W 18:33:08 10° NNW
Cosmos 1603 4.2 18:24:43 10° NNW 18:30:19 61° WSW 18:35:50 10° S
Cosmos 1898 Rocket 4.2 18:26:06 10° SW 18:31:11 58° WNW 18:36:20 10° NNE
CSL-04 Rocket 4.1 18:27:18 10° S 18:32:39 65° WSW 18:38:08 10° NNW
Cosmos 1891 Rocket 4.4 18:26:43 10° S 18:32:46 62° E 18:38:44 10° NNE
Cosmos 1867 3.6 18:28:59 10° NNW 18:34:28 71° NE 18:38:36 18° SE
Cosmos 1536 Rocket 4.1 18:34:50 10° N 18:39:01 39° ENE 18:41:16 23° SE
USA 234 3.6 18:36:18 10° ENE 18:42:27 42° SE 18:48:34 10° SSW
DMSP B5D2-2 4.3 18:42:13 10° NNE 18:47:21 47° E 18:52:26 10° S
CZ-4 R/B 4.2 18:46:36 10° SW 18:49:47 21° W 18:52:59 10° NW
Cosmos 2151 Rocket 3.7 18:45:37 10° S 18:49:56 53° E 18:54:19 10° NNE
Cosmos 372 Rocket 3.9 18:45:01 10° SSW 18:50:15 75° ESE 18:55:30 10° NNE
USA 186 1.6 18:48:48 26° SSE 18:50:23 87° ENE 18:53:37 10° N
Cosmos 2150 Rocket 4.2 18:47:32 10° S 18:52:41 50° ESE 18:57:56 10° NNE
Cosmos 1025 Rocket 2.9 18:48:41 10° N 18:53:04 72° E 18:56:09 19° SSE
NOSS 3-2 (C) 4.5 18:47:08 10° NNW 18:54:12 46° NE 18:58:44 25° E
Nadezhda 4 Rocket 3.9 18:53:47 10° N 18:59:54 67° E 19:04:42 17° SSE
OBJECT-B 1.5 19:01:23 37° NE 19:01:23 37° NE 19:03:57 10° N
Cosmos 2034 Rocket 3.9 18:55:35 10° S 19:01:54 70° E 19:08:14 10° NNE
Cosmos 2082 Rocket 4.4 19:02:09 10° NNE 19:02:59 10° NE 19:03:49 10° NE
Cosmos 1125 Rocket 3.8 18:58:44 10° S 19:03:41 42° ESE 19:08:40 10° NE
MOS 1 Rocket 4.2 18:59:58 10° N 19:04:16 47° WNW 19:08:24 10° SW
FREGAT/IRIS 2.8 19:05:31 53° NNW 19:05:31 53° NNW 19:07:38 10° NNW
Exosat Rocket 3.9 18:59:39 10° S 19:05:05 42° ESE 19:09:48 10° NE
CZ-2C R/B 3.0 19:03:12 10° SW 19:04:39 14° SSW 19:04:39 14° SSW
Cosmos 1674 2.9 19:06:05 10° N 19:09:42 50° ENE 19:09:42 50° ENE
Meteor 1-24 Rocket 4.4 19:08:49 10° N 19:13:47 34° ENE 19:14:11 33° E
In-Cosmos 22 4.3 19:11:39 10° NNW 19:16:56 70° W 19:21:24 15° S
Cosmos 468 4.4 19:12:58 10° NNW 19:18:20 82° ENE 19:20:21 40° SSE
Resurs 01 Rocket 2.0 19:19:16 43° ENE 19:19:16 43° ENE 19:23:24 10° N
H-2A R/B 3.9 19:15:33 10° SSW 19:19:48 29° W 19:24:09 10° NW
ARGOS 4.4 19:15:52 10° SSW 19:20:51 39° W 19:25:54 10° NNW
ATLAS 2AS CENTAUR R/B 4.0 19:14:54 10° S 19:24:47 25° ENE 19:28:30 10° NE
Cosmos 1707 4.4 19:18:46 10° NNW 19:22:15 33° W 19:25:42 10° SSW
SJ-6B 3.3 19:21:47 33° SSW 19:23:10 54° W 19:26:51 10° NNW
CZ-2C R/B 2.9 19:19:19 10° N 19:24:50 74° WNW 19:30:25 10° SSW
NOSS 2-2 (D) 4.4 19:22:26 10° WSW 19:25:46 39° NW 19:29:31 10° NNE
KORONAS-FOTON 3.8 19:23:33 10° N 19:27:14 74° NNE 19:27:14 74° NNE
Cosmos 1048 Rocket 4.0 19:27:11 10° NNW 19:32:31 80° WSW 19:34:10 46° S
Cosmos 1844 3.5 19:28:24 10° SSW 19:34:04 71° ESE 19:39:43 10° NNE
CENTAUR R/B 3.2 19:27:14 10° NW 19:35:16 68° NE 19:38:33 42° ESE
Cosmos 1634 Rocket 4.0 19:34:23 50° SE 19:35:32 57° E 19:41:35 10° NNE
ARIANE 5 R/B 3.8 19:37:42 31° NNE 19:37:42 31° NNE 19:40:30 10° N
Cosmos 2263 Rocket 4.5 19:35:04 10° W 19:39:28 23° NW 19:43:55 10° N
Cosmos 2285 Rocket 3.8 19:34:01 10° S 19:40:17 74° ESE 19:46:37 10° NNE
ATLAS 3B R/B 3.7 19:34:57 10° NNW 19:41:00 32° NE 19:42:49 29° ENE
MetOp-B 4.3 19:41:10 52° ENE 19:41:10 52° ENE 19:46:16 10° N
Cosmos 1269 Rocket 4.4 19:36:37 10° N 19:41:30 47° NE 19:41:30 47° NE
ISS -2.1 19:39:09 10° WSW 19:41:15 33° W 19:41:15 33° W
USA 238 DEB 3.8 19:35:48 10° NW 19:43:05 85° SW 19:45:38 46° SSE
USA 238 3.8 19:35:55 10° NW 19:43:11 85° SW 19:45:43 46° SSE
Cosmos 1844 Rocket 2.7 19:40:29 10° SSW 19:46:03 77° WNW 19:51:40 10° NNE
Spot 2 Rocket 4.3 19:48:07 37° NE 19:48:07 37° NE 19:51:51 10° N
Okean 1 Rocket 3.3 19:51:22 70° NW 19:51:22 70° NW 19:55:30 10° N
Cosmos 1627 Rocket 4.4 19:45:46 10° N 19:52:12 83° E 19:53:33 58° SSE
Lacrosse 5 rocket 3.8 19:50:34 10° NW 19:53:36 18° N 19:55:13 15° NNE
Resurs 1-3 4.3 19:57:58 48° WSW 19:58:12 48° W 20:02:29 10° NNW
Cosmos 1092 Rocket 4.1 19:52:09 10° NNW 19:58:17 72° W 20:00:15 45° SSW
SPOT 3 Rocket 4.1 20:03:38 48° SW 20:04:29 54° W 20:09:32 10° NNW
Cosmos 494 Rocket 4.2 20:00:16 10° NNW 20:05:29 64° WSW 20:05:36 64° WSW
Cosmos 2026 Rocket 4.0 19:59:28 10° N 20:05:52 83° W 20:06:55 64° S
CZ-2C R/B 4.2 20:01:41 10° N 20:05:31 55° NW 20:05:31 55° NW
Cosmos 1833 Rocket 3.6 20:03:25 10° NNW 20:07:47 36° NNE 20:07:47 36° NNE
NOSS 3-2 (A) 4.4 20:03:52 10° NW 20:11:21 59° WSW 20:13:57 43° S
Terra 3.9 20:19:13 18° NNE 20:19:13 18° NNE 20:20:45 10° N
Cosmos 2279 Rocket 4.1 20:20:51 62° NNE 20:20:51 62° NNE 20:26:05 10° N
Cosmos 2142 Rocket 4.4 20:21:19 82° N 20:21:19 82° N 20:27:18 10° N
USA 234 3.5 20:19:22 11° NE 20:25:40 68° NNW 20:32:10 10° WSW
SPOT 5 4.4 20:40:09 32° N 20:40:09 32° N 20:43:02 10° N
NOSS 3-2 (C) 4.4 20:38:01 10° NW 20:45:28 56° WSW 20:46:11 54° SW
Cosmos 2082 Rocket 3.5 20:43:14 10° NNW 20:46:33 32° N 20:46:33 32° N
Resurs 01 Rocket 4.1 20:56:51 19° WNW 20:56:51 19° WNW 20:59:08 10° NW
COSMOS 2406 4.2 20:50:34 10° NNW 20:54:20 43° NW 20:54:20 43° NW
Lacrosse 4 Rocket 4.5 21:01:53 10° NNW 21:02:11 12° NNW 21:02:11 12° NNW
ATLAS 2AS CENTAUR R/B 3.2 21:04:18 10° SW 21:12:15 69° NW 21:20:07 10° NE
Cosmos 2278 Rocket 4.5 21:22:33 16° NNE 21:22:33 16° NNE 21:23:42 10° NNE
CENTAUR R/B 4.1 21:18:24 10° NW 21:25:44 37° WSW 21:25:44 37° WSW
ATLAS 3B R/B 3.5 21:25:26 10° NW 21:30:03 46° NW 21:30:03 46° NW
